Total_Precipitation_Accumulation
2.91 2.97 2.88 2.82 2.63 2.59 2.61 2.54 2.39 2.39 2.28 2.03 1.76 1.75 1.86 1.81 1.88 2.11 2.12 2.20 2.27 2.66 3.21 3.50 3.50 3.48 3.56 3.58 3.41 3.23 3.00 2.82 2.71 2.42 2.13 1.91 1.80 1.71 1.55 1.48 1.45 1.39 1.36
3.17 3.21 3.13 3.07 3.00 2.92 2.99 2.82 2.65 2.79 2.64 2.46 2.21 2.12 2.07 2.13 2.12 2.19 2.37 2.43 2.33 2.39 2.81 3.26 3.51 3.69 3.85 3.84 3.66 3.30 3.05 2.95 2.96 2.79 2.51 2.25 2.05 1.90 1.77 1.65 1.55 1.46 1.40
3.20 3.30 3.43 3.34 3.32 3.28 3.30 3.23 3.17 3.24 2.92 2.71 2.50 2.38 2.34 2.42 2.40 2.32 2.46 2.63 2.48 2.54 2.63 2.78 3.00 3.25 3.59 3.83 3.83 3.62 3.32 3.13 3.07 3.02 2.91 2.66 2.42 2.22 2.07 1.90 1.79 1.73 1.67
3.29 3.59 3.68 3.67 3.71 3.62 3.69 3.76 3.66 3.51 3.36 3.10 2.86 2.51 2.38 2.54 2.58 2.57 2.59 2.65 2.81 2.68 2.69 2.61 2.66 2.79 3.10 3.57 3.76 3.88 3.78 3.55 3.33 3.18 3.10 2.97 2.82 2.60 2.33 2.08 1.97 1.96 1.91
3.78 3.95 4.05 4.11 4.15 4.15 4.11 3.91 4.08 3.89 3.82 3.61 3.12 2.80 2.49 2.40 2.46 2.43 2.55 2.51 2.64 2.69 2.77 2.71 2.66 2.67 2.89 3.37 3.61 3.88 4.01 3.91 3.74 3.49 3.32 3.15 3.10 2.98 2.73 2.48 2.28 2.12 2.02
4.38 4.55 4.47 4.51 4.56 4.63 4.47 4.42 4.48 4.27 3.99 3.94 3.43 3.11 2.81 2.51 2.49 2.50 2.52 2.63 2.56 2.38 2.53 2.67 2.82 2.64 2.82 3.02 3.21 3.53 3.87 4.10 4.06 3.84 3.75 3.62 3.44 3.24 2.90 2.61 2.37 2.21 2.10
5.31 5.38 5.14 5.12 5.04 4.92 4.70 4.62 4.50 4.28 4.02 4.02 3.90 3.43 2.79 2.39 2.29 2.19 2.25 2.49 2.52 2.40 2.46 2.56 2.61 2.54 2.44 2.53 2.64 2.98 3.44 3.94 4.28 4.19 4.02 3.84 3.53 3.27 3.03 2.78 2.55 2.40 2.24
6.16 6.20 6.17 5.94 5.76 5.49 4.99 4.63 4.50 4.26 3.87 3.99 4.02 3.96 3.23 2.71 2.21 1.78 1.89 1.97 2.07 2.29 2.27 2.23 2.35 2.47 2.36 2.37 2.21 2.41 2.73 3.22 3.82 4.13 4.13 3.89 3.66 3.45 3.26 3.08 2.89 2.71 2.51
6.25 6.43 6.42 6.20 5.88 5.33 4.76 4.60 4.56 4.39 4.09 4.01 3.92 4.10 3.54 2.98 2.52 2.02 1.76 1.67 1.80 1.94 1.96 1.98 2.02 2.13 2.14 2.23 2.19 2.23 2.39 2.59 3.15 3.67 3.79 3.54 3.37 3.24 3.19 3.11 3.02 2.89 2.75
6.00 5.94 5.78 5.38 5.02 4.67 4.37 4.23 4.29 4.17 4.12 3.92 3.83 3.54 3.30 3.01 2.74 2.33 1.89 1.67 1.72 1.77 1.80 1.77 1.79 1.99 2.09 2.13 2.18 2.14 2.11 2.23 2.63 3.09 3.35 3.30 3.15 3.08 3.09 3.08 3.05 3.04 3.03
5.19 4.78 4.46 4.24 4.17 4.00 3.79 3.67 3.68 3.60 3.43 3.32 3.30 3.26 3.20 2.95 2.61 2.40 2.11 1.91 1.88 1.73 1.73 1.84 1.89 1.97 2.08 2.15 2.19 2.16 2.10 1.99 2.16 2.41 2.65 2.81 2.90 2.94 3.02 3.14 3.19 3.18 3.19
4.41 3.89 3.61 3.41 3.28 3.12 2.92 2.82 2.81 2.84 2.93 2.97 3.04 3.03 2.97 2.91 2.71 2.64 2.46 2.22 2.11 1.99 1.93 1.92 1.95 2.03 2.20 2.32 2.28 2.45 2.14 1.96 1.96 2.07 2.17 2.31 2.47 2.59 2.71 2.90 3.13 3.25 3.32
3.98 3.50 3.07 2.84 2.60 2.41 2.31 2.32 2.30 2.28 2.39 2.53 2.64 2.69 2.68 2.61 2.56 2.64 2.74 2.50 2.26 2.11 2.03 1.98 1.98 2.07 2.09 2.28 2.51 2.64 2.26 2.09 1.94 1.88 1.94 2.03 2.14 2.22 2.28 2.37 2.60 2.83 3.04
3.37 3.06 2.63 2.29 2.07 1.92 1.81 1.90 1.91 1.94 2.01 2.12 2.19 2.40 2.40 2.32 2.43 2.54 2.68 2.78 2.65 2.31 2.06 2.00 2.05 2.08 2.08 2.09 2.35 2.50 2.17 2.15 1.91 1.80 1.81 1.91 1.98 2.02 2.03 2.06 2.23 2.43 2.55
2.46 2.32 2.13 1.95 1.82 1.76 1.75 1.76 1.74 1.73 1.83 1.92 1.99 2.15 2.26 2.24 2.30 2.37 2.52 2.64 2.72 2.53 2.29 2.13 2.10 2.03 2.04 2.09 2.28 1.92 1.88 2.09 1.93 1.79 1.72 1.69 1.70 1.77 1.80 1.79 1.80 1.89 1.98
1.79 1.77 1.73 1.72 1.67 1.61 1.68 1.74 1.65 1.63 1.75 1.77 1.76 1.87 1.97 2.02 2.13 2.21 2.34 2.46 2.53 2.49 2.36 2.12 2.06 2.03 1.98 1.85 2.02 1.73 1.74 1.94 1.80 1.68 1.59 1.55 1.54 1.58 1.61 1.65 1.67 1.66 1.65
1.50 1.51 1.53 1.55 1.56 1.55 1.59 1.60 1.53 1.53 1.59 1.74 1.82 1.87 1.90 1.93 2.00 2.00 2.03 2.09 2.22 2.38 2.51 2.36 2.16 2.09 2.06 1.97 1.85 1.66 1.55 1.54 1.53 1.59 1.55 1.52 1.46 1.44 1.48 1.47 1.42 1.39 1.37
1.41 1.43 1.43 1.42 1.48 1.57 1.61 1.55 1.45 1.44 1.53 1.64 1.74 1.83 1.80 1.75 1.80 1.88 1.93 1.92 1.97 2.11 2.27 2.28 2.14 1.98 1.95 1.93 1.87 1.80 1.52 1.38 1.38 1.41 1.34 1.28 1.28 1.25 1.22 1.24 1.25 1.21 1.17
1.40 1.35 1.30 1.34 1.40 1.46 1.47 1.43 1.36 1.35 1.38 1.46 1.53 1.56 1.57 1.59 1.55 1.56 1.63 1.69 1.69 1.71 1.89 1.95 1.92 1.87 1.80 1.75 1.81 1.78 1.62 1.65 1.35 1.27 1.18 1.10 1.06 1.03 0.98 0.96 1.02 1.09 1.09
1.32 1.35 1.32 1.28 1.27 1.20 1.13 1.11 1.11 1.16 1.18 1.18 1.23 1.25 1.29 1.37 1.38 1.41 1.40 1.46 1.51 1.64 1.72 1.79 1.74 1.72 1.71 1.62 1.67 1.71 1.66 1.55 1.39 1.14 1.14 0.99 0.91 0.84 0.83 0.84 0.83 0.87 0.93
1.09 1.14 1.19 1.13 1.02 0.89 0.79 0.81 0.87 0.91 0.99 1.00 1.03 1.01 0.98 1.11 1.21 1.20 1.10 1.23 1.39 1.55 1.63 1.66 1.59 1.52 1.46 1.54 1.53 1.49 1.51 1.51 1.41 1.26 1.28 1.10 0.99 0.92 0.93 0.90 0.84 0.79 0.83
1.16 1.08 1.03 1.00 0.92 0.72 0.72 0.70 0.77 0.90 1.00 0.98 1.01 1.01 0.93 0.96 0.99 0.95 0.91 1.03 1.24 1.31 1.42 1.55 1.57 1.53 1.48 1.51 1.52 1.50 1.55 1.62 1.61 1.40 1.40 1.28 1.16 1.14 1.05 0.97 0.92 0.83 0.80
1.27 1.22 1.09 1.03 1.02 0.94 0.79 0.65 0.68 0.82 0.95 0.97 0.98 0.97 0.85 0.79 0.88 0.89 0.89 0.90 0.97 1.00 1.13 1.40 1.56 1.50 1.51 1.59 1.68 1.61 1.69 1.72 1.62 1.53 1.63 1.55 1.29 1.17 0.94 0.86 0.90 0.80 0.78
1.25 1.18 1.11 1.02 0.94 0.79 0.66 0.57 0.59 0.70 0.86 0.92 0.92 0.93 0.95 0.89 0.82 0.83 0.83 0.87 0.94 0.99 1.01 1.08 1.33 1.40 1.40 1.52 1.63 1.68 1.77 1.71 1.61 1.56 1.67 1.69 1.37 1.26 1.02 1.01 0.95 0.82 0.79
1.15 1.07 0.95 0.91 0.88 0.76 0.56 0.49 0.56 0.72 0.87 0.88 0.84 0.78 0.84 0.87 0.84 0.79 0.83 0.97 1.03 1.06 0.91 0.93 1.05 1.15 1.21 1.33 1.41 1.50 1.72 1.88 1.76 1.53 1.53 1.64 1.43 1.34 1.20 1.13 1.01 0.91 0.81
1.03 0.94 0.82 0.84 0.84 0.81 0.67 0.57 0.59 0.69 0.84 0.83 0.83 0.79 0.74 0.74 0.76 0.77 0.85 0.98 1.05 1.04 0.95 0.95 1.13 1.24 1.23 1.33 1.39 1.51 1.76 1.83 1.71 1.65 1.46 1.54 1.49 1.49 1.47 1.20 1.09 1.02 0.94